Powrót do katalogu

STARLINK-5907

AktywnyŁącznośćVLEO
NORAD 56021·PAYLOAD·🇺🇸 United States

Wystrzelony Mar 24, 2023 z Cape Canaveral Space Force Station

Loading…

Następne Przeloty (najbliższe 24 godziny)

TLE

ŚwieżeSource: CelesTrak SupGP

Epoka: Sep 14, 2026, 22:33 UTC

1 56021C 23042AM  26257.94006944  .00053321  00000+0  19303-2 0  2571
2 56021  43.0020  56.6019 0002547 266.2167 214.0111 15.27567382    17

Śledź STARLINK-5907 w czasie rzeczywistym z AllMySat

Download on the App Store